| time (UTC) | temp F | wind direction | speed MPH | gust MPH | rain 1hr in | rain 24hr in | rain mn in | humidity % | barometer mb |
| 20260508173035 | 0 | 200 | 5.0 | 8.0 | 0.00 | 0.00 | 0.00 | 1016.4 | |
| 20260508171537 | 0 | 200 | 4.0 | 8.0 | 0.00 | 0.00 | 0.00 | 1016.3 | |
| 20260508170034 | 0 | 200 | 3.0 | 9.0 | 0.00 | 0.00 | 0.00 | 1016.4 | |
| 20260508164533 | 0 | 234 | 3.0 | 11.0 | 0.00 | 0.00 | 0.00 | 1016.4 | |
| 20260508163037 | 0 | 269 | 4.0 | 9.0 | 0.00 | 0.00 | 0.00 | 1016.4 | |
| 20260508161534 | 0 | 171 | 6.0 | 14.0 | 0.00 | 0.00 | 0.00 | 1016.2 | |
| 20260508160032 | 0 | 221 | 6.0 | 13.0 | 0.00 | 0.00 | 0.00 | 1016.1 | |
| 20260508154532 | 0 | 168 | 2.0 | 10.0 | 0.00 | 0.00 | 0.00 | 1016.2 | |
| 20260508153035 | 0 | 242 | 3.0 | 8.0 | 0.00 | 0.00 | 0.00 | 1016.1 | |
| 20260508151531 | 0 | 268 | 2.0 | 8.0 | 0.00 | 0.00 | 0.00 | 1016.1 | |
| 20260508150031 | 0 | 200 | 4.0 | 8.0 | 0.00 | 0.00 | 0.00 | 1016.0 | |
| 20260508144530 | 0 | 183 | 6.0 | 9.0 | 0.00 | 0.00 | 0.00 | 1015.9 | |
| 20260508143029 | 0 | 183 | 6.0 | 13.0 | 0.00 | 0.00 | 0.00 | 1015.8 | |
| 20260508141529 | 0 | 185 | 8.0 | 12.0 | 0.00 | 0.00 | 0.00 | 1015.9 | |
| 20260508140029 | 0 | 178 | 7.0 | 11.0 | 0.00 | 0.00 | 0.00 | 1015.9 | |
| 20260508134528 | 0 | 173 | 8.0 | 12.0 | 0.00 | 0.00 | 0.00 | 1016.1 | |
| 20260508133021 | 0 | 183 | 6.0 | 12.0 | 0.00 | 0.00 | 0.00 | 1016.1 | |
| 20260508131517 | 0 | 180 | 9.0 | 20.0 | 0.00 | 0.00 | 0.00 | 1016.1 | |
| 20260508130020 | 0 | 179 | 3.0 | 11.0 | 0.00 | 0.00 | 0.00 | 1016.1 | |
| 20260508124515 | 0 | 180 | 6.0 | 11.0 | 0.00 | 0.00 | 0.00 | 1016.1 | |
| 20260508123014 | 0 | 180 | 6.0 | 11.0 | 0.00 | 0.00 | 0.00 | 1016.0 | |
| 20260508121516 | 0 | 181 | 8.0 | 11.0 | 0.00 | 0.00 | 0.00 | 1016.0 | |
| 20260508120029 | 0 | 177 | 7.0 | 13.0 | 0.00 | 0.00 | 0.00 | 1016.0 | |
| 20260508114513 | 0 | 181 | 8.0 | 13.0 | 0.00 | 0.00 | 0.00 | 1015.9 | |
| 20260508113014 | 0 | 189 | 6.0 | 15.0 | 0.00 | 0.00 | 0.00 | 1015.8 | |
| 20260508111514 | 0 | 180 | 5.0 | 12.0 | 0.00 | 0.00 | 0.00 | 1015.9 | |
| 20260508110011 | 0 | 181 | 6.0 | 13.0 | 0.00 | 0.00 | 0.00 | 1015.9 | |
| 20260508104511 | 0 | 181 | 5.0 | 14.0 | 0.00 | 0.00 | 0.00 | 1015.9 | |
| 20260508103019 | 0 | 175 | 8.0 | 14.0 | 0.00 | 0.00 | 0.00 | 1015.8 | |
| 20260508101507 | 0 | 344 | 2.0 | 9.0 | 0.00 | 0.00 | 0.00 | 1015.8 | |
| 20260508100003 | 0 | 341 | 9.0 | 13.0 | 0.00 | 0.00 | 0.00 | 1015.8 | |
| 20260508094602 | 0 | 332 | 8.0 | 12.0 | 0.00 | 0.00 | 0.00 | 1015.8 | |
| 20260508093101 | 0 | 329 | 7.0 | 10.0 | 0.00 | 0.00 | 0.00 | 1015.9 | |
| 20260508091603 | 0 | 305 | 8.0 | 12.0 | 0.00 | 0.00 | 0.00 | 1015.9 | |
| 20260508090046 | 0 | 327 | 8.0 | 10.0 | 0.00 | 0.00 | 0.00 | 1015.9 | |
| 20260508084541 | 0 | 315 | 7.0 | 10.0 | 0.00 | 0.00 | 0.00 | 1015.9 | |
| 20260508083040 | 0 | 273 | 4.0 | 8.0 | 0.00 | 0.00 | 0.00 | 1015.9 | |
| 20260508081543 | 0 | 272 | 0.0 | 4.0 | 0.00 | 0.00 | 0.00 | 1016.0 | |
| 20260508080027 | 0 | 272 | 0.0 | 6.0 | 0.00 | 0.00 | 0.00 | 1016.0 | |
| 20260508074525 | 0 | 274 | 5.0 | 7.0 | 0.00 | 0.00 | 0.00 | 1016.1 | |
| 20260508073018 | 0 | 277 | 0.0 | 7.0 | 0.00 | 0.00 | 0.00 | 1016.1 | |
| 20260508071514 | 0 | 277 | 3.0 | 5.0 | 0.00 | 0.00 | 0.00 | 1016.2 | |
| 20260508070010 | 0 | 277 | 2.0 | 7.0 | 0.00 | 0.00 | 0.00 | 1016.2 | |
| 20260508064505 | 0 | 277 | 0.0 | 7.0 | 0.00 | 0.00 | 0.00 | 1016.2 | |
| 20260508063000 | 0 | 277 | 4.0 | 8.0 | 0.00 | 0.00 | 0.00 | 1016.2 | |
| 20260508061604 | 0 | 290 | 3.0 | 5.0 | 0.00 | 0.00 | 0.00 | 1016.2 | |
| 20260508060053 | 0 | 290 | 1.0 | 4.0 | 0.00 | 0.00 | 0.00 | 1016.1 | |
| 20260508054548 | 0 | 290 | 3.0 | 5.0 | 0.00 | 0.00 | 0.00 | 1016.1 | |
| 20260508053052 | 0 | 290 | 0.0 | 6.0 | 0.00 | 0.00 | 0.00 | 1016.0 | |
| 20260508051545 | 0 | 307 | 4.0 | 6.0 | 0.00 | 0.00 | 0.00 | 1016.0 | |
| 20260508050039 | 0 | 309 | 1.0 | 5.0 | 0.00 | 0.00 | 0.00 | 1016.0 | |
| 20260508044531 | 0 | 309 | 1.0 | 6.0 | 0.00 | 0.00 | 0.00 | 1016.1 | |
| 20260508043026 | 0 | 309 | 0.0 | 5.0 | 0.00 | 0.00 | 0.00 | 1016.1 | |
| 20260508041521 | 0 | 310 | 3.0 | 6.0 | 0.00 | 0.00 | 0.00 | 1016.0 | |
| 20260508040017 | 0 | 309 | 2.0 | 6.0 | 0.00 | 0.00 | 0.00 | 1016.0 | |
| 20260508034513 | 0 | 319 | 4.0 | 6.0 | 0.00 | 0.00 | 0.00 | 1016.1 | |
| 20260508033009 | 0 | 319 | 0.0 | 5.0 | 0.00 | 0.00 | 0.00 | 1016.1 | |
| 20260508031504 | 0 | 319 | 0.0 | 5.0 | 0.00 | 0.00 | 0.00 | 1016.1 | |
| 20260508030100 | 0 | 319 | 0.0 | 2.0 | 0.00 | 0.00 | 0.00 | 1016.1 | |
| 20260508024603 | 0 | 319 | 0.0 | 4.0 | 0.00 | 0.00 | 0.00 | 1016.2 | |
| 20260508023050 | 0 | 319 | 0.0 | 2.0 | 0.00 | 0.00 | 0.00 | 1016.3 | |
| 20260508021546 | 0 | 319 | 0.0 | 5.0 | 0.00 | 0.00 | 0.00 | 1016.3 | |
| 20260508020042 | 0 | 319 | 0.0 | 4.0 | 0.00 | 0.00 | 0.00 | 1016.4 | |
| 20260508014538 | 0 | 319 | 3.0 | 6.0 | 0.00 | 0.00 | 0.00 | 1016.4 | |
| 20260508013036 | 0 | 319 | 0.0 | 4.0 | 0.00 | 0.00 | 0.00 | 1016.5 | |
| 20260508011530 | 0 | 319 | 2.0 | 6.0 | 0.00 | 0.00 | 0.00 | 1016.5 | |
| 20260508010027 | 0 | 319 | 0.0 | 5.0 | 0.00 | 0.00 | 0.00 | 1016.6 | |
| 20260508004520 | 0 | 319 | 1.0 | 4.0 | 0.00 | 0.00 | 0.00 | 1016.7 | |
| 20260508003016 | 0 | 319 | 0.0 | 5.0 | 0.00 | 0.00 | 0.00 | 1016.9 | |
| 20260508001511 | 0 | 319 | 3.0 | 6.0 | 0.00 | 0.00 | 0.00 | 1016.8 | |
| 20260508000008 | 0 | 319 | 0.0 | 4.0 | 0.00 | 0.00 | 0.00 | 1016.9 | |
| 20260507234505 | 0 | 319 | 1.0 | 4.0 | 0.00 | 0.00 | 0.00 | 1016.9 | |
| 20260507233059 | 0 | 319 | 0.0 | 2.0 | 0.00 | 0.00 | 0.00 | 1016.9 | |
| 20260507231558 | 0 | 319 | 2.0 | 5.0 | 0.00 | 0.00 | 0.00 | 1016.9 | |
| 20260507230050 | 0 | 319 | 1.0 | 5.0 | 0.00 | 0.00 | 0.00 | 1017.0 | |
| 20260507224548 | 0 | 319 | 0.0 | 4.0 | 0.00 | 0.00 | 0.00 | 1017.1 | |
| 20260507223041 | 0 | 319 | 0.0 | 4.0 | 0.00 | 0.00 | 0.00 | 1017.1 | |
| 20260507221537 | 0 | 319 | 0.0 | 2.0 | 0.00 | 0.00 | 0.00 | 1017.3 | |
| 20260507220033 | 0 | 319 | 0.0 | 6.0 | 0.00 | 0.00 | 0.00 | 1017.3 | |
| 20260507214530 | 0 | 319 | 4.0 | 6.0 | 0.00 | 0.00 | 0.00 | 1017.4 | |
| 20260507213025 | 0 | 319 | 0.0 | 5.0 | 0.00 | 0.00 | 0.00 | 1017.2 | |
| 20260507211521 | 0 | 319 | 0.0 | 4.0 | 0.00 | 0.00 | 0.00 | 1017.2 | |
| 20260507210017 | 0 | 319 | 0.0 | 6.0 | 0.00 | 0.00 | 0.00 | 1017.2 | |
| 20260507204513 | 0 | 319 | 0.0 | 4.0 | 0.00 | 0.00 | 0.00 | 1017.3 | |
| 20260507203011 | 0 | 319 | 0.0 | 2.0 | 0.00 | 0.00 | 0.00 | 1017.3 | |
| 20260507201503 | 0 | 319 | 0.0 | 2.0 | 0.00 | 0.00 | 0.00 | 1017.1 | |
| 20260507200107 | 0 | 319 | 0.0 | 6.0 | 0.00 | 0.00 | 0.00 | 1017.1 | |
| 20260507194555 | 0 | 322 | 0.0 | 5.0 | 0.00 | 0.00 | 0.00 | 1017.1 | |
| 20260507193053 | 0 | 322 | 3.0 | 5.0 | 0.00 | 0.00 | 0.00 | 1017.1 | |
| 20260507191546 | 0 | 322 | 3.0 | 5.0 | 0.00 | 0.00 | 0.00 | 1016.9 | |
| 20260507190046 | 0 | 322 | 2.0 | 7.0 | 0.00 | 0.00 | 0.00 | 1016.9 | |
| 20260507184545 | 0 | 323 | 2.0 | 8.0 | 0.00 | 0.00 | 0.00 | 1017.0 | |
| 20260507183046 | 0 | 320 | 3.0 | 8.0 | 0.00 | 0.00 | 0.00 | 1016.9 | |
| 20260507181544 | 0 | 319 | 4.0 | 8.0 | 0.00 | 0.00 | 0.00 | 1016.9 | |
| 20260507180047 | 0 | 319 | 3.0 | 6.0 | 0.00 | 0.00 | 0.00 | 1016.9 | |
| 20260507174550 | 0 | 320 | 5.0 | 8.0 | 0.00 | 0.00 | 0.00 | 1016.9 |